| time (UTC) | temp F | wind direction | speed MPH | gust MPH | rain 1hr in | rain 24hr in | rain mn in | humidity % | barometer mb |
| 20260902075010 | 63 | 247 | 0.0 | 1.0 | 0.00 | 0.00 | 0.00 | 86 | 21.4 |
| 20260902074010 | 62 | 247 | 0.0 | 2.0 | 0.00 | 0.00 | 0.00 | 86 | 21.3 |
| 20260902073010 | 62 | 315 | 0.0 | 2.0 | 0.00 | 0.00 | 0.00 | 88 | 21.4 |
| 20260902072010 | 60 | 315 | 0.0 | 3.0 | 0.00 | 0.00 | 0.00 | 91 | 21.2 |
| 20260902071010 | 59 | 0 | 0.0 | 0.0 | 0.00 | 0.00 | 0.00 | 92 | 21.1 |
| 20260902070011 | 59 | 315 | 0.0 | 1.0 | 0.00 | 0.00 | 0.00 | 93 | 21.1 |
| 20260902065010 | 58 | 315 | 0.0 | 2.0 | 0.00 | 0.00 | 0.00 | 94 | 21.1 |
| 20260902064010 | 58 | 0 | 0.0 | 0.0 | 0.00 | 0.00 | 0.00 | 94 | 21.0 |
| 20260902063010 | 57 | 0 | 0.0 | 0.0 | 0.00 | 0.00 | 0.00 | 95 | 20.9 |
| 20260902060011 | 55 | 0 | 0.0 | 0.0 | 0.00 | 0.00 | 0.00 | 96 | 20.6 |
| 20260902055010 | 54 | 0 | 0.0 | 0.0 | 0.00 | 0.00 | 0.00 | 96 | 20.4 |
| 20260902054010 | 54 | 0 | 0.0 | 0.0 | 0.00 | 0.00 | 0.00 | 96 | 20.4 |
| 20260902053010 | 54 | 0 | 0.0 | 0.0 | 0.00 | 0.00 | 0.00 | 96 | 20.3 |
| 20260902052010 | 54 | 0 | 0.0 | 0.0 | 0.00 | 0.00 | 0.00 | 96 | 20.1 |
| 20260902051010 | 54 | 0 | 0.0 | 0.0 | 0.00 | 0.00 | 0.00 | 96 | 20.1 |
| 20260902050010 | 53 | 0 | 0.0 | 0.0 | 0.00 | 0.00 | 0.00 | 96 | 20.0 |
| 20260902045010 | 53 | 0 | 0.0 | 0.0 | 0.00 | 0.00 | 0.00 | 96 | 20.1 |
| 20260902044010 | 53 | 0 | 0.0 | 0.0 | 0.00 | 0.00 | 0.00 | 96 | 20.1 |
| 20260902043010 | 53 | 0 | 0.0 | 0.0 | 0.00 | 0.00 | 0.00 | 96 | 20.3 |
| 20260902042010 | 53 | 0 | 0.0 | 0.0 | 0.00 | 0.00 | 0.00 | 96 | 20.4 |
| 20260902041010 | 53 | 0 | 0.0 | 0.0 | 0.00 | 0.00 | 0.00 | 96 | 20.4 |
| 20260902040010 | 52 | 0 | 0.0 | 0.0 | 0.00 | 0.00 | 0.00 | 95 | 20.2 |
| 20260902034010 | 52 | 0 | 0.0 | 0.0 | 0.00 | 0.00 | 0.00 | 95 | 20.3 |
| 20260902033010 | 53 | 0 | 0.0 | 0.0 | 0.00 | 0.00 | 0.00 | 95 | 20.4 |
| 20260902032010 | 53 | 0 | 0.0 | 0.0 | 0.00 | 0.00 | 0.00 | 95 | 20.2 |
| 20260902031010 | 53 | 0 | 0.0 | 0.0 | 0.00 | 0.00 | 0.00 | 95 | 20.1 |
| 20260902025012 | 54 | 0 | 0.0 | 0.0 | 0.00 | 0.00 | 0.00 | 95 | 20.0 |
| 20260902024010 | 54 | 0 | 0.0 | 0.0 | 0.00 | 0.00 | 0.00 | 94 | 19.9 |
| 20260902023010 | 54 | 0 | 0.0 | 0.0 | 0.00 | 0.00 | 0.00 | 95 | 19.9 |
| 20260902022010 | 53 | 0 | 0.0 | 0.0 | 0.00 | 0.00 | 0.00 | 95 | 19.9 |
| 20260902020010 | 53 | 0 | 0.0 | 0.0 | 0.00 | 0.00 | 0.00 | 94 | 20.1 |
| 20260902015010 | 54 | 0 | 0.0 | 0.0 | 0.00 | 0.00 | 0.00 | 94 | 20.3 |
| 20260902014010 | 54 | 0 | 0.0 | 0.0 | 0.00 | 0.00 | 0.00 | 94 | 20.4 |
| 20260902013010 | 54 | 0 | 0.0 | 0.0 | 0.00 | 0.00 | 0.00 | 94 | 20.1 |
| 20260902012010 | 53 | 0 | 0.0 | 0.0 | 0.00 | 0.00 | 0.00 | 93 | 20.0 |
| 20260902011010 | 54 | 0 | 0.0 | 0.0 | 0.00 | 0.00 | 0.00 | 93 | 20.1 |
| 20260902010010 | 55 | 0 | 0.0 | 0.0 | 0.00 | 0.00 | 0.00 | 92 | 20.1 |
| 20260902005010 | 55 | 0 | 0.0 | 0.0 | 0.00 | 0.00 | 0.00 | 92 | 20.1 |
| 20260902004010 | 55 | 0 | 0.0 | 0.0 | 0.00 | 0.00 | 0.00 | 92 | 20.1 |
| 20260902003010 | 55 | 0 | 0.0 | 0.0 | 0.00 | 0.00 | 0.00 | 91 | 20.1 |
| 20260902002010 | 55 | 0 | 0.0 | 0.0 | 0.00 | 0.00 | 0.00 | 92 | 20.1 |
| 20260902001010 | 54 | 0 | 0.0 | 0.0 | 0.00 | 0.00 | 0.00 | 91 | 20.0 |
| 20260902000010 | 55 | 0 | 0.0 | 0.0 | 0.00 | 0.00 | 0.00 | 90 | 20.0 |
| 20260901235010 | 56 | 0 | 0.0 | 0.0 | 0.00 | 0.00 | 0.00 | 90 | 20.1 |
| 20260901234010 | 56 | 0 | 0.0 | 0.0 | 0.00 | 0.00 | 0.00 | 89 | 20.0 |
| 20260901233010 | 56 | 0 | 0.0 | 0.0 | 0.00 | 0.00 | 0.00 | 89 | 20.0 |
| 20260901232010 | 56 | 0 | 0.0 | 0.0 | 0.00 | 0.00 | 0.00 | 88 | 20.1 |
| 20260901230010 | 57 | 0 | 0.0 | 0.0 | 0.00 | 0.00 | 0.00 | 86 | 20.1 |
| 20260901225010 | 58 | 315 | 0.0 | 2.0 | 0.00 | 0.00 | 0.00 | 87 | 20.0 |
| 20260901224010 | 57 | 0 | 0.0 | 0.0 | 0.00 | 0.00 | 0.00 | 88 | 19.9 |
| 20260901223010 | 58 | 0 | 0.0 | 0.0 | 0.00 | 0.00 | 0.00 | 87 | 19.9 |
| 20260901220010 | 59 | 0 | 0.0 | 0.0 | 0.00 | 0.00 | 0.00 | 85 | 19.9 |
| 20260901214011 | 58 | 0 | 0.0 | 0.0 | 0.00 | 0.00 | 0.00 | 83 | 19.7 |
| 20260901213010 | 60 | 0 | 0.0 | 0.0 | 0.00 | 0.00 | 0.00 | 82 | 19.8 |
| 20260901210010 | 60 | 0 | 0.0 | 0.0 | 0.00 | 0.00 | 0.00 | 79 | 19.8 |
| 20260901205010 | 61 | 0 | 0.0 | 0.0 | 0.00 | 0.00 | 0.00 | 79 | 20.0 |
| 20260901204009 | 61 | 0 | 0.0 | 0.0 | 0.00 | 0.00 | 0.00 | 78 | 19.9 |
| 20260901203010 | 62 | 0 | 0.0 | 0.0 | 0.00 | 0.00 | 0.00 | 78 | 20.0 |
| 20260901202010 | 63 | 0 | 0.0 | 0.0 | 0.00 | 0.00 | 0.00 | 76 | 20.0 |
| 20260901201010 | 63 | 0 | 0.0 | 0.0 | 0.00 | 0.00 | 0.00 | 76 | 19.9 |
| 20260901200010 | 64 | 0 | 0.0 | 0.0 | 0.00 | 0.00 | 0.00 | 73 | 19.9 |
| 20260901195010 | 64 | 0 | 0.0 | 0.0 | 0.00 | 0.00 | 0.00 | 73 | 19.8 |
| 20260901194010 | 65 | 0 | 0.0 | 0.0 | 0.00 | 0.00 | 0.00 | 72 | 19.8 |
| 20260901192010 | 65 | 0 | 0.0 | 0.0 | 0.00 | 0.00 | 0.00 | 72 | 19.5 |
| 20260901191010 | 65 | 0 | 0.0 | 0.0 | 0.00 | 0.00 | 0.00 | 69 | 19.5 |
| 20260901190010 | 67 | 0 | 0.0 | 0.0 | 0.00 | 0.00 | 0.00 | 68 | 19.4 |
| 20260901185010 | 68 | 0 | 0.0 | 0.0 | 0.00 | 0.00 | 0.00 | 65 | 19.4 |
| 20260901184010 | 70 | 0 | 0.0 | 0.0 | 0.00 | 0.00 | 0.00 | 63 | 19.3 |
| 20260901183010 | 71 | 0 | 0.0 | 0.0 | 0.00 | 0.00 | 0.00 | 60 | 19.2 |
| 20260901181010 | 74 | 0 | 0.0 | 0.0 | 0.00 | 0.00 | 0.00 | 53 | 19.1 |
| 20260901175010 | 76 | 0 | 0.0 | 0.0 | 0.00 | 0.00 | 0.00 | 52 | 19.1 |
| 20260901174009 | 77 | 315 | 0.0 | 1.0 | 0.00 | 0.00 | 0.00 | 50 | 19.1 |
| 20260901173010 | 77 | 0 | 0.0 | 0.0 | 0.00 | 0.00 | 0.00 | 49 | 19.1 |
| 20260901172009 | 77 | 315 | 0.0 | 1.0 | 0.00 | 0.00 | 0.00 | 48 | 19.1 |
| 20260901171009 | 78 | 315 | 0.0 | 1.0 | 0.00 | 0.00 | 0.00 | 47 | 19.1 |
| 20260901170010 | 78 | 315 | 0.0 | 2.0 | 0.00 | 0.00 | 0.00 | 46 | 19.2 |
| 20260901165009 | 79 | 315 | 0.0 | 2.0 | 0.00 | 0.00 | 0.00 | 46 | 19.3 |
| 20260901164009 | 79 | 0 | 0.0 | 0.0 | 0.00 | 0.00 | 0.00 | 47 | 19.4 |
| 20260901163009 | 79 | 315 | 0.0 | 1.0 | 0.00 | 0.00 | 0.00 | 45 | 19.4 |
| 20260901162009 | 79 | 315 | 0.0 | 2.0 | 0.00 | 0.00 | 0.00 | 45 | 19.4 |
| 20260901161009 | 80 | 247 | 0.0 | 2.0 | 0.00 | 0.00 | 0.00 | 45 | 19.4 |
| 20260901155009 | 80 | 292 | 0.0 | 2.0 | 0.00 | 0.00 | 0.00 | 45 | 19.5 |
| 20260901154009 | 80 | 67 | 0.0 | 2.0 | 0.00 | 0.00 | 0.00 | 44 | 19.5 |
| 20260901153009 | 80 | 292 | 1.0 | 3.0 | 0.00 | 0.00 | 0.00 | 44 | 19.5 |
| 20260901152009 | 82 | 45 | 1.0 | 3.0 | 0.00 | 0.00 | 0.00 | 44 | 19.5 |
| 20260901150010 | 82 | 360 | 1.0 | 5.0 | 0.00 | 0.00 | 0.00 | 43 | 19.6 |
| 20260901145009 | 81 | 202 | 1.0 | 6.0 | 0.00 | 0.00 | 0.00 | 44 | 19.6 |
| 20260901144009 | 82 | 225 | 2.0 | 5.0 | 0.00 | 0.00 | 0.00 | 41 | 19.7 |
| 20260901143009 | 80 | 247 | 1.0 | 5.0 | 0.00 | 0.00 | 0.00 | 44 | 19.7 |
| 20260901142009 | 81 | 202 | 2.0 | 4.0 | 0.00 | 0.00 | 0.00 | 42 | 19.8 |
| 20260901141009 | 81 | 247 | 2.0 | 6.0 | 0.00 | 0.00 | 0.00 | 43 | 19.8 |
| 20260901140010 | 81 | 247 | 5.0 | 11.0 | 0.00 | 0.00 | 0.00 | 43 | 19.9 |
| 20260901135009 | 82 | 270 | 1.0 | 4.0 | 0.00 | 0.00 | 0.00 | 44 | 19.9 |
| 20260901134009 | 81 | 247 | 2.0 | 5.0 | 0.00 | 0.00 | 0.00 | 44 | 20.0 |
| 20260901133009 | 81 | 247 | 3.0 | 7.0 | 0.00 | 0.00 | 0.00 | 44 | 20.1 |
| 20260901130010 | 82 | 247 | 4.0 | 9.0 | 0.00 | 0.00 | 0.00 | 44 | 20.5 |
| 20260901125009 | 81 | 247 | 1.0 | 7.0 | 0.00 | 0.00 | 0.00 | 46 | 20.7 |
| 20260901124009 | 80 | 225 | 1.0 | 8.0 | 0.00 | 0.00 | 0.00 | 48 | 20.8 |
| 20260901123009 | 78 | 247 | 3.0 | 5.0 | 0.00 | 0.00 | 0.00 | 48 | 20.8 |
| 20260901122014 | 79 | 270 | 2.0 | 4.0 | 0.00 | 0.00 | 0.00 | 47 | 20.8 |
| 20260901120010 | 79 | 247 | 1.0 | 5.0 | 0.00 | 0.00 | 0.00 | 48 | 21.0 |
| 20260901113009 | 79 | 225 | 2.0 | 6.0 | 0.00 | 0.00 | 0.00 | 48 | 21.2 |
| 20260901112009 | 78 | 67 | 1.0 | 3.0 | 0.00 | 0.00 | 0.00 | 48 | 21.4 |
| 20260901111009 | 79 | 67 | 1.0 | 4.0 | 0.00 | 0.00 | 0.00 | 50 | 21.4 |
| 20260901104014 | 76 | 67 | 0.0 | 2.0 | 0.00 | 0.00 | 0.00 | 55 | 21.6 |
| 20260901103014 | 76 | 45 | 1.0 | 4.0 | 0.00 | 0.00 | 0.00 | 53 | 21.7 |
| 20260901102014 | 77 | 112 | 1.0 | 3.0 | 0.00 | 0.00 | 0.00 | 52 | 21.7 |
| 20260901101014 | 76 | 90 | 1.0 | 3.0 | 0.00 | 0.00 | 0.00 | 54 | 21.8 |
| 20260901095015 | 76 | 225 | 1.0 | 5.0 | 0.00 | 0.00 | 0.00 | 56 | 22.0 |
| 20260901094014 | 75 | 225 | 2.0 | 4.0 | 0.00 | 0.00 | 0.00 | 56 | 22.0 |
| 20260901093014 | 76 | 247 | 0.0 | 3.0 | 0.00 | 0.00 | 0.00 | 57 | 22.0 |
| 20260901092014 | 75 | 337 | 1.0 | 3.0 | 0.00 | 0.00 | 0.00 | 60 | 21.9 |
| 20260901091014 | 74 | 360 | 0.0 | 2.0 | 0.00 | 0.00 | 0.00 | 63 | 22.0 |
| 20260901090014 | 74 | 315 | 0.0 | 3.0 | 0.00 | 0.00 | 0.00 | 63 | 22.0 |
| 20260901085014 | 73 | 315 | 0.0 | 2.0 | 0.00 | 0.00 | 0.00 | 65 | 21.9 |
| 20260901084014 | 71 | 225 | 1.0 | 6.0 | 0.00 | 0.00 | 0.00 | 67 | 21.9 |
| 20260901081014 | 70 | 292 | 1.0 | 4.0 | 0.00 | 0.00 | 0.00 | 71 | 21.9 |
| 20260901080014 | 69 | 270 | 1.0 | 3.0 | 0.00 | 0.00 | 0.00 | 73 | 21.8 |